TimeEST,TemperatureF,Dew PointF,Humidity,Sea Level PressureIn,VisibilityMPH,Wind Direction,Wind SpeedMPH,Gust SpeedMPH,PrecipitationIn,Events,Conditions,WindDirDegrees,DateUTC
12:53 AM,32.0,27.0,82,30.05,10.0,WSW,8.1,-,N/A,,Overcast,240,2013-01-01 05:53:00
1:08 AM,32.0,26.6,80,30.02,10.0,WSW,6.9,-,N/A,,Overcast,240,2013-01-01 06:08:00
1:53 AM,32.0,28.0,85,30.05,8.0,SW,8.1,-,N/A,,Overcast,230,2013-01-01 06:53:00
2:25 AM,30.2,28.4,93,30.01,3.0,SW,9.2,-,0.00,Snow,Light Snow,220,2013-01-01 07:25:00
2:36 AM,30.2,28.4,93,30.01,2.0,SW,9.2,-,0.00,Snow,Light Snow,230,2013-01-01 07:36:00
2:44 AM,30.2,28.4,93,30.00,1.2,SW,5.8,-,0.00,Snow,Light Snow,230,2013-01-01 07:44:00
2:53 AM,30.9,28.9,92,30.05,1.2,SW,8.1,-,0.00,Snow,Light Snow,220,2013-01-01 07:53:00
3:09 AM,30.2,28.4,93,30.00,2.5,SW,9.2,-,0.00,Snow,Light Snow,230,2013-01-01 08:09:00
3:53 AM,30.9,28.9,92,30.04,2.0,SW,10.4,-,0.01,Snow,Light Snow,230,2013-01-01 08:53:00
4:02 AM,30.2,28.4,93,29.99,1.8,SW,8.1,-,0.00,Snow,Light Snow,230,2013-01-01 09:02:00
4:53 AM,30.9,28.9,92,30.03,1.2,SW,8.1,-,0.00,Snow,Light Snow,220,2013-01-01 09:53:00
5:21 AM,30.2,28.4,93,29.98,2.5,SW,8.1,-,0.01,Snow,Light Snow,230,2013-01-01 10:21:00
5:28 AM,30.2,28.4,93,29.98,3.0,WSW,4.6,-,0.01,Snow,Light Snow,240,2013-01-01 10:28:00
5:42 AM,30.2,28.4,93,29.99,2.0,SW,6.9,-,0.01,Snow,Light Snow,230,2013-01-01 10:42:00
5:50 AM,30.2,28.4,93,29.98,1.8,SW,6.9,-,0.01,Snow,Light Snow,230,2013-01-01 10:50:00
5:53 AM,30.0,28.9,96,30.03,1.8,WSW,6.9,-,0.01,Snow,Light Snow,240,2013-01-01 10:53:00
6:10 AM,30.2,28.4,93,29.98,2.0,WSW,5.8,-,0.00,Snow,Light Snow,240,2013-01-01 11:10:00
6:22 AM,30.2,28.4,93,29.98,3.0,Calm,Calm,-,0.00,,Overcast,0,2013-01-01 11:22:00
6:51 AM,30.2,28.4,93,29.99,2.0,WSW,4.6,-,0.00,Snow,Light Snow,240,2013-01-01 11:51:00
6:53 AM,30.0,28.9,96,30.03,2.0,SW,4.6,-,0.00,Snow,Light Snow,230,2013-01-01 11:53:00
7:00 AM,30.2,28.4,93,29.99,1.5,WSW,3.5,-,0.00,Snow,Light Snow,250,2013-01-01 12:00:00
7:08 AM,30.2,28.4,93,29.99,1.2,SW,4.6,-,0.00,Snow,Light Snow,230,2013-01-01 12:08:00
7:53 AM,30.0,28.9,96,30.04,2.5,WSW,4.6,-,0.01,,Overcast,250,2013-01-01 12:53:00
8:04 AM,30.2,28.4,93,30.00,1.8,WSW,5.8,-,N/A,,Overcast,250,2013-01-01 13:04:00
8:14 AM,30.2,28.4,93,29.99,2.0,WSW,4.6,-,N/A,,Overcast,240,2013-01-01 13:14:00
8:36 AM,30.2,28.4,93,30.00,3.0,West,4.6,-,N/A,,Overcast,260,2013-01-01 13:36:00
8:53 AM,30.9,28.9,92,30.05,5.0,WSW,5.8,-,N/A,,Overcast,250,2013-01-01 13:53:00
9:53 AM,30.9,28.9,92,30.06,6.0,West,6.9,-,N/A,,Overcast,270,2013-01-01 14:53:00
10:53 AM,30.9,28.9,92,30.08,8.0,West,5.8,-,N/A,,Overcast,270,2013-01-01 15:53:00
11:53 AM,30.9,28.0,89,30.03,8.0,WNW,8.1,-,N/A,,Overcast,290,2013-01-01 16:53:00
12:53 PM,30.9,28.0,89,30.02,5.0,NW,8.1,-,N/A,,Overcast,310,2013-01-01 17:53:00
1:53 PM,30.0,27.0,88,30.01,4.0,NW,6.9,-,N/A,,Overcast,320,2013-01-01 18:53:00
2:21 PM,30.2,26.6,86,29.98,5.0,NW,10.4,-,N/A,,Overcast,310,2013-01-01 19:21:00
2:45 PM,30.2,24.8,80,29.96,7.0,WNW,10.4,-,N/A,,Overcast,300,2013-01-01 19:45:00
2:53 PM,30.0,24.1,79,30.02,7.0,WNW,10.4,-,N/A,,Overcast,290,2013-01-01 19:53:00
3:53 PM,30.0,23.0,75,30.04,7.0,NW,8.1,-,N/A,,Overcast,310,2013-01-01 20:53:00
4:53 PM,28.9,21.9,75,30.06,8.0,WNW,6.9,-,N/A,,Overcast,290,2013-01-01 21:53:00
5:53 PM,28.0,21.0,75,30.06,10.0,WNW,6.9,-,N/A,,Overcast,290,2013-01-01 22:53:00
6:53 PM,27.0,19.9,75,30.09,10.0,WNW,5.8,-,N/A,,Overcast,300,2013-01-01 23:53:00
7:14 PM,26.6,19.4,74,30.03,10.0,NW,5.8,-,N/A,,Scattered Clouds,310,2013-01-02 00:14:00
7:53 PM,25.0,19.0,78,30.09,10.0,NNW,4.6,-,N/A,,Mostly Cloudy,340,2013-01-02 00:53:00
8:04 PM,24.8,19.4,80,30.04,10.0,NW,4.6,-,N/A,,Overcast,320,2013-01-02 01:04:00
8:53 PM,25.0,18.0,75,30.09,10.0,NW,3.5,-,N/A,,Overcast,310,2013-01-02 01:53:00
9:53 PM,24.1,18.0,77,30.10,10.0,NNW,8.1,-,N/A,,Overcast,340,2013-01-02 02:53:00
10:53 PM,24.1,17.1,75,30.11,10.0,NNW,4.6,-,N/A,,Overcast,340,2013-01-02 03:53:00
11:53 PM,23.0,16.0,74,30.11,10.0,NNW,3.5,-,N/A,,Overcast,340,2013-01-02 04:53:00